Location: Aubervilles
(48.9167°N, 2.3833°E)
Time: 10:49:50
(UTC+00:00)

BlueWalker 3 - Pass Details

Date: 03 February 2023
Orbit: 497 x 514 km, 53.2° (Epoch: 29 March)

Event Time Altitude Azimuth Distance (km) Brightness Sun altitude
Rises 18:25:03 0° 280° (W) 2,602 7.0 -15.7°
Reaches altitude 10° 18:27:19 10° 288° (WNW) 1,722 5.7 -16.0°
Maximum altitude 18:31:02 43° 1° (N) 727 2.6 -16.7°
Enters shadow 18:32:20 31° 48° (NE) 909 2.8 -16.9°
